This is the latest recevied weather packets stored in our database for station/object OE6PWE-13. If no packets are shown the sender has not sent any weather packets the latest 10 day(s).
| Time | Temp. | Humidity | Pressure | Rain* | Wind** | Luminosity | Snow |
|---|---|---|---|---|---|---|---|
| 1788086712 | 28.33° C | 47% | 1015 hPa | 0 mm | - | - | - |
| 1788085812 | 27.78° C | 53% | 1016 hPa | 0 mm | - | - | - |
| 1788084912 | 27.22° C | 53% | 1016 hPa | 0 mm | - | - | - |
| 1788084012 | 27.22° C | 53% | 1016 hPa | 0 mm | - | - | - |
| 1788083112 | 27.22° C | 52% | 1016 hPa | 0 mm | - | - | - |
| 1788082212 | 26.67° C | 53% | 1016 hPa | 0 mm | - | - | - |
| 1788081311 | 26.11° C | 53% | 1016 hPa | 0 mm | - | - | - |
| 1788080412 | 25.56° C | 53% | 1016 hPa | 0 mm | - | - | - |
| 1788079512 | 25.56° C | 53% | 1016 hPa | 0 mm | - | - | - |
| 1788078612 | 24.44° C | 56% | 1017 hPa | 0 mm | - | - | - |
| 1788077712 | 23.89° C | 57% | 1017 hPa | 0 mm | - | - | - |
| 1788076811 | 22.22° C | 61% | 1017 hPa | 0 mm | - | - | - |
| 1788075912 | 20.56° C | 72% | 1017 hPa | 0 mm | - | - | - |
| 1788075012 | 21.11° C | 74% | 1017 hPa | 0 mm | - | - | - |
| 1788074112 | 17.78° C | 77% | 1017 hPa | 0 mm | - | - | - |
| 1788073212 | 15.56° C | 94% | 1018 hPa | 0 mm | - | - | - |
| 1788072311 | 14.44° C | 99% | 1018 hPa | 0 mm | - | - | - |
| 1788071411 | 13.89° C | 99% | 1018 hPa | 0 mm | - | - | - |
| 1788070512 | 13.33° C | 99% | 1018 hPa | 0 mm | - | - | - |
| 1788069611 | 12.78° C | 99% | 1018 hPa | 0 mm | - | - | - |
| 1788068712 | 12.78° C | 99% | 1018 hPa | 0 mm | - | - | - |
| 1788067811 | 12.78° C | 99% | 1018 hPa | 0 mm | - | - | - |
| 1788066912 | 12.78° C | 99% | 1018 hPa | 0 mm | - | - | - |
| 1788066012 | 12.22° C | 99% | 1018 hPa | 0 mm | - | - | - |
| 1788065112 | 11.67° C | 99% | 1018 hPa | 0 mm | - | - | - |
* Rain latest hour (hover to see other rain measurements)
** Current wind speed in m/s (hover to see current wind gust speed)